Regional Weather Roundup
Issued by NWS Northern Indiana

Home | Current Version | Previous Version | Text Only | Print | Product List | Glossary On
Versions: 1 2 3 4 5 6 7 8 9 10 11 12 13 14 15 16 17 18 19 20 21 22 23 24 25 26 27 28 29 30 31 32 33 34 35 36 37 38 39 40 41 42 43 44 45 46 47 48 49 50
433
ASUS43 KIWX 190110
RWRIWX

KIWX WEATHER ROUNDUP
NATIONAL WEATHER SERVICE NORTHERN INDIANA
800 PM EST THU JAN 18 2018

NOTE: "FAIR" INDICATES FEW OR NO CLOUDS BELOW 12,000 FEET WITH NO
SIGNIFICANT WEATHER AND/OR OBSTRUCTIONS TO VISIBILITY.

* THESE STATIONS ARE NOT UNDER NWS QUALITY CONTROL. THEY ALSO MAY NOT
  REPORT WEATHER SUCH AS PRECIPITATION OR FOG.

INZ001>027-190200-
NORTHERN INDIANA

CITY           SKY/WX    TMP DP  RH WIND       PRES   REMARKS
GARY*          CLEAR     30  21  69 SW15      30.05R WCI  19
VALPARAISO     FAIR      27  18  69 SW13      30.06S WCI  16
MICHIGAN CITY* FAIR      28  19  69 SW13G20   30.05S WCI  18
LAPORTE*       FAIR      25  18  74 SW16G22   30.07R WCI  13
KNOX*          FAIR      27  18  69 SW10G18   30.08R WCI  17
SOUTH BEND     FAIR      25  17  72 SW17      30.06R WCI  12
ELKHART*       FAIR      27  18  69 SW12G21   30.06R WCI  16
GOSHEN         FAIR      24  14  65 SW14G24   30.07R WCI  12
MONTICELLO*    FAIR      26  14  60 SW16G22   30.11R WCI  14
LOGANSPORT*    FAIR      25  14  63 SW14      30.12S WCI  13
ROCHESTER*     FAIR      28  18  64 SW8       30.09S WCI  20
WARSAW*        FAIR      27  14  59 SW8       30.07R WCI  18
AUBURN*        FAIR      27  14  59 SW9       30.07R WCI  17
FORT WAYNE     FAIR      25  14  63 SW13      30.09S WCI  14
HUNTINGTON*    FAIR      26  12  56 SW7G16    30.10R WCI  18
PERU/GRISSOM   FAIR      24  15  68 SW16      30.10S WCI  11
MARION*        LGT SNOW  27  15  60 SW17      30.12S WCI  14

$$
INZ028>050-190200-
CENTRAL INDIANA

CITY           SKY/WX    TMP DP  RH WIND       PRES   REMARKS
LAFAYETTE      FAIR      25  15  66 SW12      30.13S WCI  14
MUNCIE*        FAIR      29  13  51 SW13      30.12S WCI  19
INDIANAPOLIS   FAIR      26  13  57 SW14      30.17F WCI  14

$$
MIZ043>046-050>051-056>058-064>065-071>073-077>080-190200-
SOUTHWEST LOWER MICHIGAN

CITY           SKY/WX    TMP DP  RH WIND       PRES   REMARKS
BATTLE CREEK   FAIR      24  15  68 SW14      30.00R WCI  12
BENTON HARBOR  FAIR      29  18  63 SW13G23   30.02R WCI  19
COLDWATER*     FAIR      26  15  64 SW14      30.02R WCI  14
HILLSDALE*     FAIR      25  14  63 SW8       30.00R WCI  16
HOLLAND        FAIR      32  23  69 SW24G30   29.96S WCI  19
GRAND RAPIDS   FAIR      28  16  60 SW10      29.95R WCI  19
KALAMAZOO      FAIR      27  16  63 SW15      30.00R WCI  15
STURGIS*       FAIR      26  17  68 SW13      30.03R WCI  15
THREE RIVERS*  FAIR      28  17  65 SW10G18   30.04R WCI  18

$$
OHZ001>008-015>018-024>025-190200-
NORTHWEST OHIO

CITY           SKY/WX    TMP DP  RH WIND       PRES   REMARKS
WAUSEON*       FAIR      25  16  68 SW15G22   30.04S WCI  12
DEFIANCE       FAIR      24  13  62 SW14      30.07S WCI  12
FINDLAY        FAIR      28  12  51 SW17      30.09S WCI  16
TOLEDO EXPRESS FAIR      25  16  68 SW10      30.05R WCI  15
TOLEDO METCALF FAIR      25  15  66 SW16      30.06S WCI  12
LIMA           FAIR      26  14  60 SW14      30.10S WCI  14

$$
AND FOR LAKE MICHIGAN COASTAL AND OPEN LAKE BUOY OBSERVATIONS

STATION/POSITION TEMP    WIND        PRES    VSBY  WAVE
                 AIR SEA DIR/SP/G                  HT/PER
                 (F)     (DEG/KT/KT) (MB)    (MI)  (FT/S)
CALUMET HARBOR    30     200/ 14/ 17 1016.0S
MICHIGAN CITY     30     200/ 18/ 21   N/A
BURNS HARBOR      29     210/ 13/ 19 1017.9R
SAINT JOSEPH      28     210/ 11/ 16 1017.3

$$
&&




USA.gov is the U.S. government's official web portal to all federal, state and local government web resources and services.